Hoosier Classic - Race 4

Station: Matthews MO - A Race

Distance: 350 Miles    

Release: 29-Oct-2017 07:45

Weather Release:    Arrival:

Wind at Release:     Wind at Arrival:

Temp at Release: °    Temp at Arrival: °

Lofts: 326

Birds: 989

Clocked: 869

Good Luck to Everyone!
Drops Pos Breeder Pigeon Name Color Sex Ent Arrival Speed To Win Eligible Op 1Op 2
27677 1 Eastern Pearl Loft - VA 0264-AU17-EPL 🈚️量 264 BBSP H 1 14:44:51.30 1467.173 00:00:00 Yes
18277 2 Rpm Syndicate - ON 0006-AU17-BFS BCSP H 1 14:44:59.60 1466.690 00:00:08 Yes
18277 3 Fleet Washington - DC 1720-AU17-FLEE BB H 1 14:45:02.50 1466.521 00:00:11 Yes
34887 4 Greek Connection - SC 0535-AU17-GREE BILL TADLOCK THE LEGEND CHSP H 1 14:45:02.90 1466.498 00:00:12 Yes
18277 5 Valdmake Loft - FL 8226-AU17-AA SLAT H 1 14:45:05.10 1466.370 00:00:14 Yes
18277 6 O & L De Vries - ON 2360-CU17-OL 2116 x 381 BB H 1 14:45:08.30 1466.184 00:00:17 Yes
18277 7 Ken Easley & Son Racing - NM 5006-AU17-EASL 3594 x 114 (EZ $ x Birdy) BBWF C 1 14:45:08.90 1466.149 00:00:18 Yes
18277 8 A P C Loft - TX 17069-AU17-APC GRIZ H 1 14:45:10.20 1466.073 00:00:19 Yes
18277 9 Champ Camp/Hobo - IN 0140-AU17-CHAM CHWF H 1 14:45:11.20 1466.015 00:00:20 Yes
18277 10 Dos Hermano & Yosellaj Loft - FL 4413-AU17-HRPC !My Dream! BB C 1 14:45:13.40 1465.887 00:00:22 Yes
18277 11 Modud - CO 1315-AU17-SD BWF H 1 14:45:14.00 1465.852 00:00:23 Yes
18277 12 Liqingni Loft - NY 0219-AU17-YANG 杨219 BWF H 1 14:45:14.60 1465.817 00:00:23 Yes
18277 13 Cbp Loft - IN 0001-AU17-JHWA BB H 1 14:45:15.50 1465.765 00:00:24 Yes
18277 14 Flying D Loft - TX 0678-AU17-DEN CHPD H 1 14:45:16.00 1465.736 00:00:25 Yes
18277 15 Warren Loft - NE 0045-AU17-WARR BCH H 1 14:45:18.80 1465.573 00:00:28 Yes
18277 16 Lou Coletta Loft - CA 4853-AU17-VK BB C 1 14:45:20.60 1465.469 00:00:29 Yes
27757 17 Ganus Family Loft - IN 0302-AU17-GFL BB H 1 14:46:34.60 1461.181 00:01:43 Yes
18277 18 Furlano & Rotiroti - ON 3384-CU17-LAKE BB H 1 14:47:05.60 1459.393 00:02:14 Yes
3000 19 Smith-Bartz-Serrao Team - FL 0009-AU17-RAND BB C 1 14:48:24.50 1454.860 00:03:33 Yes
3000 20 Bayside Loft - NY 56385-IF17-NEIL BWF H 1 14:48:25.10 1454.826 00:03:34 Yes
3000 21 Fleet Washington - DC 1719-AU17-FLEE BB C 2 14:48:26.90 1454.723 00:03:36 Yes
3000 22 Elton Dinga - TX 12034-AU17-AA Klaas BB C 1 14:48:28.00 1454.660 00:03:37 Yes
5350 23 Hi-Cal Connection - CA 0777-AU17-HICA BB C 1 14:48:28.90 1454.608 00:03:38 Yes
7780 24 Ganus Family Loft - IN 0322-AU17-GFL BB H 2 14:48:31.30 1454.471 00:03:40 Yes
3000 25 Da-Dong - WI 0307-AU17-RAC BWF H 1 14:48:33.90 1454.322 00:03:43 Yes
3000 26 Irishsyndicatelofts - AZ 7942-IF17-IRIS BB H 1 14:48:36.20 1454.191 00:03:45 Yes
3000 27 Wolf's Den Loft - IL 0008-AU17-WOLF BB C 1 14:48:40.10 1453.968 00:03:49 Yes
3000 28 Linda De Vries - ON 2318-CU17-OL 1981-604 BB C 1 14:48:40.20 1453.962 00:03:49 Yes
3000 29 Tim Byers - OH 0918-AU17-BUCK BB C 1 14:48:40.80 1453.927 00:03:50 Yes
3000 30 Kowkow Family - IL 0217-AU17-BFS BB C 1 14:48:49.30 1453.442 00:03:58 Yes
4390 31 Debbie Ganus - IN 0724-AU17-GFL BCH H 1 14:48:50.70 1453.361 00:03:59 Yes
2000 32 Kolvenbag & Son - PA 1128-IF17-KOLV BCH H 1 14:48:51.20 1453.333 00:04:00 Yes
2000 33 Furia - FL 1703-AU17-HRPC BCH H 1 14:48:51.60 1453.310 00:04:00 Yes
2000 34 Elton Dinga - TX 12043-AU17-AA Gust Jansen x Vercammen DCH H 2 14:48:52.80 1453.241 00:04:02 Yes
2000 35 Southern Belle - GA 0005-AU17-NEA BB H 1 14:48:58.60 1452.910 00:04:07 Yes
2000 36 Twin Loft - FL 0589-AU17-HRPC BCH H 1 14:48:59.80 1452.842 00:04:08 Yes
2000 37 Warren Loft - NE 0014-AU17-WARR BBWF H 2 14:49:01.00 1452.773 00:04:10 Yes
2000 38 Twin Loft - FL 0595-AU17-BLES BB C 2 14:49:02.60 1452.682 00:04:11 Yes
2000 39 John Fukumoto - HI 0330-AU17-HAWN BB H 1 14:49:08.40 1452.351 00:04:17 Yes
2000 40 Aubrina & Pappy - IN 0912-AU17-VK BSP H 1 14:49:09.20 1452.305 00:04:18 Yes
2000 41 Mesopotamia Loft - MN 0331-AU17-MESO BCH H 1 14:49:15.70 1451.934 00:04:24 Yes
2000 42 A & H Loft - TN 0046-AU17-ADIL BB C 1 14:49:18.30 1451.786 00:04:27 Yes
2000 43 P N W Challenge - ID 7042-AU17-PNWC "555-211" BB H 1 14:49:19.10 1451.740 00:04:28 Yes
2000 44 Igor & Sons Loft - OR 0133-AU17-OTC BB C 1 14:49:22.60 1451.541 00:04:31 Yes
2000 45 Dan-Sherri & The Garfield Boys - UT 7112-AU17-CDR "Ms Millionaire 830" GRIZ H 1 14:49:27.10 1451.284 00:04:36 Yes
2000 46 Aubrina & Pappy - IN 0926-AU17-VK BBPD H 2 14:49:33.20 1450.937 00:04:42 Yes
2000 47 America\'s Dream Loft - IL 0046-AU17-ADL BB C 1 14:49:37.30 1450.703 00:04:46 Yes
2000 48 Greek Connection - SC 0304-AU17-GREE SUPERCRACK BWF C 2 14:49:47.10 1450.145 00:04:56 Yes
2000 49 Ganus Family Loft - IN 0731-AU17-GFL BB H 3 14:51:31.10 1444.252 00:06:40 Yes
2000 50 Team Spring Hill - FL 0888-IF17-UTEN BB C 1 14:51:31.70 1444.218 00:06:40 Yes
2000 51 Nemelka Racing Pigeon Loft - UT 7036-AU17-NRPL Golden Moment x 454 BCH H 1 14:51:33.60 1444.111 00:06:42 Yes
2000 52 Red Ass Ranch - TX 0124-AU17-RAR BWF H 1 14:51:37.60 1443.885 00:06:46 Yes
2000 53 Warren Loft - NE 0040-AU17-WARR BB H 3 14:51:38.20 1443.852 00:06:47 Yes
2000 54 F Vasquez Loft - CA 0002-AU17-VL BB H 1 14:51:40.00 1443.750 00:06:49 Yes
2000 55 Greek Connection - SC 0342-AU17-GREE 20296 BB H 3 14:51:42.50 1443.609 00:06:51 Yes
2000 56 A P C Loft - TX 17020-AU17-APC BB C 2 14:51:45.80 1443.423 00:06:54 Yes
2000 57 Lou Coletta Loft - CA 4849-AU17-VK BWF C 2 14:51:46.80 1443.367 00:06:55 Yes
2000 57 Nemelka Racing Pigeon Loft - UT 7081-AU17-NRPL Florian x Aarden 2 (Don) BB C 2 14:51:46.80 1443.367 00:06:55 Yes
2000 59 Genesis Syndicate Loft - AZ 0326-AU17-SYN BWF C 1 14:51:48.90 1443.248 00:06:58 Yes
2000 60 Flying Dragon Loft - GA 0512-AU17-GA BB H 2 14:51:50.00 1443.186 00:06:59 Yes
2000 60 Flying Dragon Loft - GA 0519-AU17-GA BB C 1 14:51:50.00 1443.186 00:06:59 Yes
2000 62 Greek Connection - SC 0341-AU17-GREE 135 BB H 4 14:51:54.00 1442.961 00:07:03 Yes
2000 63 P N W Challenge - ID 7043-AU17-PNWC "555-211" BPD H 2 14:51:55.70 1442.865 00:07:04 Yes
2000 64 Menyuam Pom Loft - MN 12815-AU17-ARPU Zaaj BB H 1 14:51:56.30 1442.831 00:07:05 Yes
2000 65 Mc Laughlin Lofts - MA 1038-AU17-MCLO BB H 1 14:51:57.20 1442.781 00:07:06 Yes
2000 66 Patrick Kwan - CA 0713-AU17-KWAN BB H 1 14:51:57.70 1442.752 00:07:06 Yes
2000 67 Chai Suen Siu - MI 1648-AU17-GRM DCH H 1 14:51:57.80 1442.747 00:07:06 Yes
2000 68 Debbie Ganus - IN 0031-AU17-GFL BCH H 2 14:51:59.30 1442.662 00:07:08 Yes
2000 69 A F L - GA 0110-AU17-AFL ,,MYSTERY'' BB H 1 14:52:03.70 1442.415 00:07:12 Yes
2000 70 Dream Union - DC 1125-IF17-SLP BB C 1 14:52:07.80 1442.184 00:07:16 Yes
2000 71 Lsu Loft - LA 0013-AU17-LSU GRIZ C 1 14:52:08.20 1442.161 00:07:17 Yes
2000 72 Da-Dong - WI 0364-AU17-RAC BB H 2 14:52:08.60 1442.139 00:07:17 Yes
2000 73 Ceyx Loft - CA 0808-AU17-CEYX DCH C 1 14:52:09.60 1442.083 00:07:18 Yes
2000 74 Leo Loft - IN 0002-AU17-AMER BB H 1 14:52:13.10 1441.886 00:07:22 Yes
2000 75 Tegan Bogoslawski - IN 0103-AU17-ANDY BPD H 1 14:52:15.60 1441.745 00:07:24 Yes
76 Cbp Loft - IN 0008-AU17-JHWA BB C 2 14:52:16.20 1441.711 00:07:25 Yes
77 Ganus Family Loft - IN 0702-AU17-GFL CHWF H 4 14:52:18.50 1441.582 00:07:27 Yes
78 O Rodriguez Loft - FL 7704-IF17-SGF DCH H 1 14:52:19.40 1441.531 00:07:28 Yes
79 Hylek Loft - IN 0301-AU17-MICH BB C 1 14:52:20.60 1441.464 00:07:29 Yes
80 Julius Wilkerson - OR 60151-AU17-ARPU BB H 1 14:52:22.40 1441.363 00:07:31 Yes
81 K T Loft - IN 0212-AU17-KT BB H 1 14:52:25.20 1441.205 00:07:34 Yes
82 P N W Challenge - ID 7039-AU17-PNWC "33199-4" BSP H 3 14:52:26.90 1441.110 00:07:36 Yes
83 V Lin - IA 0333-AU17-VALI CHWF C 1 14:52:29.20 1440.981 00:07:38 Yes
84 Jones Family & Gwp Macaloney - TX 7084-AU17-JFL DCH H 1 14:52:32.30 1440.806 00:07:41 Yes
85 Pan Family Loft - VA 34164-AU17-ARPU BB C 1 14:52:35.10 1440.649 00:07:44 Yes
86 Alonso Loft - FL 0505-AU17-ALON BWF H 1 14:52:36.60 1440.565 00:07:45 Yes
87 Book & Van Wingerden - AZ 7005-AU17-BOOK BBPD H 1 14:52:39.30 1440.413 00:07:48 Yes
88 Flying D Loft - TX 0250-AU17-FLYD BB H 2 14:52:42.70 1440.223 00:07:51 Yes
89 A P C Loft - TX 17108-AU17-APC BCH C 3 14:52:43.30 1440.189 00:07:52 Yes
90 Roby Delgado Loft - FL 0521-AU17-ORL Marleni 84x68 BB H 1 14:52:44.10 1440.144 00:07:53 Yes
91 Macken/Zittler - MN 0666-AU17-MACK RCH C 1 14:52:46.30 1440.021 00:07:55 Yes
92 The X-Loft - IN 0011-AU17-XLOF Hollywood lights BWF H 1 14:52:50.40 1439.791 00:07:59 Yes
93 Orozco's Loft - MI 0910-AU17-MEX CHPD H 1 14:52:54.10 1439.583 00:08:03 Yes
94 Baldwin & Tilson - NC 7069-AU17-TENT BB C 1 14:52:57.00 1439.420 00:08:06 Yes
95 Avalos Loft - CA 1602-AU17-TULE PEN H 1 14:52:59.10 1439.303 00:08:08 Yes
96 Fassio Loft - UT 0572-AU17-SLI BLK H 1 14:53:05.40 1438.950 00:08:14 Yes
97 Shiloft - PA 5078-IF17-ERIE BWF C 1 14:53:06.00 1438.916 00:08:15 Yes
98 Marocik Loft - NY 0601-IF17-TRI BB H 1 14:53:06.10 1438.911 00:08:15 Yes
99 Dickson Loft - OK 7026-AU17-ARKO BB H 1 14:53:10.50 1438.664 00:08:19 Yes
100 Book & Van Wingerden - AZ 7039-AU17-BOOK BB H 2 14:53:11.20 1438.625 00:08:20 Yes

There are 1123 bird records

Note: These Race Results are unofficial and subject to change until verified by the Race Committee and declared final.